CW4143 Weather Reports


Display with metric or nautical units.
time (UTC)temp
F
wind
direction
speed
MPH
gust
MPH
rain 1hr
in
rain 24hr
in
rain mn
in
humidity
%
barometer
mb
20260505224338 51 141 4.0 9.0 0.00 0.03 0.03 60 1011.3
20260505223854 51 140 5.0 9.0 0.00 0.03 0.03 60 1011.3
20260505223338 52 131 1.0 6.0 0.00 0.03 0.03 61 1011.3
20260505222849 52 260 3.0 6.0 0.00 0.03 0.03 57 1011.9
20260505222349 51 206 3.0 5.0 0.00 0.03 0.03 61 1011.9
20260505221832 51 244 0.0 3.0 0.00 0.03 0.03 63 1011.9
20260505221341 51 5 0.0 3.0 0.00 0.03 0.03 63 1012.2
20260505220913 51 72 0.0 2.0 0.00 0.03 0.03 59 1012.2
20260505220335 51 72 0.0 3.0 0.00 0.03 0.03 58 1012.2
20260505215845 50 72 0.0 3.0 0.00 0.03 0.03 60 1011.5
20260505215330 50 177 0.0 3.0 0.00 0.03 0.03 61 1011.5
20260505214857 50 177 0.0 3.0 0.00 0.03 0.03 57 1011.5
20260505214359 50 177 1.0 4.0 0.00 0.03 0.03 58 1012.3
20260505213842 50 177 1.0 4.0 0.00 0.03 0.03 60 1012.3
20260505213353 50 129 1.0 4.0 0.00 0.03 0.03 60 1012.3
20260505212842 50 158 1.0 4.0 0.00 0.03 0.03 61 1012.0
20260505212351 50 138 3.0 4.0 0.00 0.03 0.03 63 1012.0
20260505211835 51 165 2.0 3.0 0.00 0.03 0.03 61 1012.0
20260505211339 51 225 0.0 4.0 0.00 0.03 0.03 59 1011.9
20260505210843 51 145 0.0 5.0 0.00 0.03 0.03 57 1011.9
20260505210346 51 154 3.0 8.0 0.00 0.03 0.03 61 1011.9
20260505205831 51 140 2.0 9.0 0.00 0.03 0.03 59 1012.0
20260505205341 51 129 4.0 9.0 0.00 0.03 0.03 59 1012.0
20260505204852 51 165 0.0 9.0 0.00 0.03 0.03 58 1012.0
20260505204335 52 178 2.0 9.0 0.00 0.03 0.03 57 1012.0
20260505203841 52 88 1.0 7.0 0.00 0.03 0.03 57 1012.0
20260505203345 52 136 4.0 7.0 0.00 0.03 0.03 59 1012.0
20260505202847 52 84 4.0 6.0 0.00 0.03 0.03 57 1012.0
20260505202331 51 125 2.0 7.0 0.00 0.03 0.03 58 1012.0
20260505201841 51 138 4.0 7.0 0.00 0.03 0.03 58 1012.0
20260505201349 51 136 2.0 6.0 0.00 0.03 0.03 60 1012.4
20260505200856 50 75 2.0 6.0 0.00 0.03 0.03 62 1012.4
20260505200351 50 106 3.0 6.0 0.00 0.03 0.03 61 1012.4
20260505195851 50 111 3.0 6.0 0.00 0.03 0.03 62 1012.5
20260505195355 50 96 3.0 6.0 0.00 0.03 0.03 62 1012.5
20260505194857 50 146 1.0 6.0 0.00 0.03 0.03 64 1012.5
20260505194352 49 169 1.0 6.0 0.00 0.03 0.03 64 1012.5
20260505193845 49 102 2.0 6.0 0.00 0.03 0.03 64 1012.5
20260505193353 49 119 4.0 7.0 0.00 0.03 0.03 64 1012.5
20260505192849 49 124 1.0 7.0 0.00 0.03 0.03 64 1012.8
20260505192350 49 156 3.0 7.0 0.00 0.03 0.03 65 1012.8
20260505191832 49 121 0.0 6.0 0.00 0.03 0.03 65 1012.8
20260505191346 49 133 1.0 6.0 0.00 0.03 0.03 65 1012.4
20260505190855 49 85 1.0 7.0 0.00 0.03 0.03 66 1012.4
20260505190402 50 119 4.0 7.0 0.00 0.03 0.03 64 1012.4
20260505185903 49 161 1.0 6.0 0.00 0.03 0.03 65 1012.4
20260505185343 49 141 4.0 7.0 0.00 0.03 0.03 65 1012.4
20260505184843 49 145 4.0 7.0 0.00 0.03 0.03 67 1012.4
20260505184350 48 146 3.0 10.0 0.00 0.03 0.03 65 1012.4
20260505183831 48 177 5.0 10.0 0.00 0.03 0.03 67 1012.4
20260505183339 48 132 6.0 10.0 0.00 0.03 0.03 68 1012.4
20260505182849 48 154 4.0 11.0 0.00 0.03 0.03 70 1012.8
20260505182346 48 141 5.0 11.0 0.00 0.03 0.03 69 1012.8
20260505181854 47 163 5.0 11.0 0.00 0.03 0.03 71 1012.8
20260505181355 47 142 6.0 11.0 0.00 0.03 0.03 70 1012.5
20260505180904 47 158 5.0 11.0 0.00 0.03 0.03 70 1012.5
20260505180351 47 196 3.0 11.0 0.00 0.03 0.03 70 1012.5
20260505175852 47 154 5.0 11.0 0.00 0.03 0.03 70 1012.6
20260505175417 48 170 3.0 11.0 0.00 0.03 0.03 70 1012.6
20260505174855 48 146 1.0 7.0 0.00 0.03 0.03 69 1012.6
20260505174354 48 129 2.0 9.0 0.00 0.03 0.03 70 1012.5
20260505173905 48 164 4.0 11.0 0.00 0.03 0.03 72 1012.5
20260505173330 48 123 5.0 10.0 0.00 0.03 0.03 74 1012.5
20260505172906 47 128 5.0 11.0 0.00 0.03 0.03 74 1012.8
20260505172351 47 125 5.0 11.0 0.00 0.03 0.03 75 1012.8
20260505171851 47 121 4.0 10.0 0.00 0.03 0.03 78 1012.8
20260505171350 46 145 5.0 9.0 0.00 0.03 0.03 77 1012.6
20260505170830 46 140 6.0 9.0 0.00 0.03 0.03 78 1012.6
20260505170340 46 152 2.0 12.0 0.00 0.03 0.03 75 1012.6
20260505165849 46 117 5.0 12.0 0.00 0.03 0.03 74 1012.6
20260505165347 46 143 5.0 10.0 0.00 0.03 0.03 75 1012.6
20260505164850 46 169 4.0 10.0 0.00 0.03 0.03 75 1012.6
20260505164351 46 139 6.0 10.0 0.00 0.03 0.03 77 1012.9
20260505163833 46 122 5.0 11.0 0.00 0.03 0.03 77 1012.9
20260505163350 45 136 6.0 11.0 0.00 0.03 0.03 78 1012.9
20260505162856 45 170 8.0 11.0 0.00 0.03 0.03 78 1012.9
20260505162336 45 163 5.0 10.0 0.00 0.03 0.03 78 1012.9
20260505161901 45 136 5.0 11.0 0.00 0.03 0.03 79 1012.9
20260505161343 45 152 5.0 13.0 0.00 0.03 0.03 79 1012.5
20260505160846 45 169 9.0 13.0 0.00 0.03 0.03 79 1012.5
20260505160354 45 132 6.0 12.0 0.00 0.03 0.03 80 1012.5
20260505153340 45 159 4.0 10.0 0.01 0.03 0.03 80 1012.1
20260505152850 45 71 2.0 11.0 0.01 0.03 0.03 79 1012.0
20260505152332 45 177 3.0 9.0 0.01 0.03 0.03 81 1012.0
20260505151849 45 162 3.0 9.0 0.01 0.03 0.03 79 1012.0
20260505151355 45 100 5.0 9.0 0.02 0.03 0.03 79 1011.9
20260505150918 45 117 3.0 15.0 0.02 0.03 0.03 78 1011.9
20260505150356 45 102 9.0 15.0 0.02 0.03 0.03 77 1011.9
20260505140343 46 78 3.0 9.0 0.01 0.01 0.01 75 1011.9
20260505124917 50 140 3.0 10.0 0.00 0.00 0.00 65 1010.7
20260505124338 50 152 2.0 10.0 0.00 0.00 0.00 64 1010.4
20260505123848 49 96 2.0 6.0 0.00 0.00 0.00 64 1010.4
20260505123332 50 98 3.0 6.0 0.00 0.00 0.00 63 1010.4
20260505122845 50 148 3.0 6.0 0.00 0.00 0.00 63 1010.5
20260505122330 49 144 4.0 6.0 0.00 0.00 0.00 64 1010.5
20260505121836 49 106 3.0 6.0 0.00 0.00 0.00 64 1010.5
20260505121404 50 140 4.0 6.0 0.00 0.00 0.00 64 1010.4
20260505120848 50 164 2.0 5.0 0.00 0.00 0.00 66 1010.4
20260505120331 50 86 3.0 5.0 0.00 0.00 0.00 66 1010.4
20260505115909 50 69 3.0 6.0 0.00 0.00 0.00 67 1010.6
20260505115332 50 67 3.0 7.0 0.00 0.00 0.00 67 1010.6
20260505114840 50 72 3.0 9.0 0.00 0.00 0.00 66 1010.6
20260505114344 50 119 2.0 9.0 0.00 0.00 0.00 66 1010.6
20260505113846 50 122 4.0 9.0 0.00 0.00 0.00 66 1010.6
20260505113328 50 102 4.0 9.0 0.00 0.00 0.00 67 1010.6
20260505112842 50 127 3.0 9.0 0.00 0.00 0.00 67 1010.6
20260505112352 50 86 4.0 8.0 0.00 0.00 0.00 68 1010.6
20260505111903 50 98 3.0 6.0 0.00 0.00 0.00 69 1010.6
20260505111406 50 88 2.0 5.0 0.00 0.00 0.00 70 1010.9
20260505110915 50 126 3.0 6.0 0.00 0.00 0.00 72 1010.9
20260505110336 50 116 3.0 6.0 0.00 0.00 0.00 72 1010.9
20260505101836 50 141 4.0 10.0 0.00 0.00 0.00 77 1011.0
20260505101345 50 127 6.0 10.0 0.00 0.00 0.00 75 1010.6
20260505100844 50 121 2.0 7.0 0.00 0.00 0.00 71 1010.6
20260505100347 51 136 2.0 7.0 0.00 0.00 0.00 69 1010.6
20260505095852 51 71 2.0 5.0 0.00 0.00 0.00 67 1010.6
20260505095355 51 92 2.0 4.0 0.00 0.00 0.00 68 1010.6
20260505094838 51 119 2.0 4.0 0.00 0.00 0.00 70 1010.6
20260505094348 51 125 2.0 9.0 0.00 0.00 0.00 70 1010.8
20260505093837 51 152 2.0 9.0 0.00 0.00 0.00 74 1010.8
20260505093343 51 182 3.0 5.0 0.00 0.00 0.00 68 1010.8
20260505092849 51 131 0.0 4.0 0.00 0.00 0.00 67 1010.7
20260505092331 52 144 0.0 4.0 0.00 0.00 0.00 66 1010.7
20260505091902 52 146 2.0 4.0 0.00 0.00 0.00 65 1010.7
20260505091356 52 160 2.0 4.0 0.00 0.00 0.00 63 1010.5
20260505090839 52 154 1.0 3.0 0.00 0.00 0.00 63 1010.5
20260505090349 52 154 1.0 3.0 0.00 0.00 0.00 61 1010.5
20260505085845 52 153 1.0 3.0 0.00 0.00 0.00 61 1010.5
20260505085347 52 153 0.0 4.0 0.00 0.00 0.00 60 1010.5
20260505084848 52 151 0.0 4.0 0.00 0.00 0.00 60 1010.5
20260505084351 52 148 1.0 9.0 0.00 0.00 0.00 61 1010.4
20260505083832 52 164 1.0 9.0 0.00 0.00 0.00 61 1010.4
20260505083342 52 96 3.0 7.0 0.00 0.00 0.00 63 1010.4
20260505082851 52 99 3.0 7.0 0.00 0.00 0.00 62 1010.7
20260505082347 51 140 3.0 6.0 0.00 0.00 0.00 67 1010.7
20260505081831 51 126 2.0 4.0 0.00 0.00 0.00 69 1010.7
20260505081340 51 112 0.0 6.0 0.00 0.00 0.00 70 1011.2
20260505080841 51 118 1.0 6.0 0.00 0.00 0.00 71 1011.2
20260505080354 51 113 3.0 12.0 0.00 0.00 0.00 71 1011.2
20260505075832 51 68 1.0 12.0 0.00 0.00 0.00 71 1011.2
20260505075345 50 138 2.0 7.0 0.00 0.00 0.00 75 1011.2
20260505074855 50 150 3.0 7.0 0.00 0.00 0.00 76 1011.2
20260505074354 50 167 2.0 7.0 0.00 0.00 0.00 77 1011.4
20260505073835 50 127 4.0 8.0 0.00 0.00 0.00 79 1011.4
20260505073405 50 139 4.0 8.0 0.00 0.00 0.00 78 1011.4
20260505072854 50 148 3.0 7.0 0.00 0.00 0.00 82 1011.5
20260505072404 50 144 5.0 8.0 0.00 0.00 0.00 81 1011.5
20260505071850 50 122 2.0 9.0 0.00 0.00 0.00 81 1011.5
20260505071347 50 123 4.0 9.0 0.00 0.00 0.00 81 1011.2
20260505070848 50 104 4.0 10.0 0.00 0.00 0.00 80 1011.2
20260505070330 50 144 5.0 10.0 0.00 0.00 0.00 79 1011.2
20260505065907 50 124 3.0 11.0 0.00 0.00 0.00 78 1011.4
20260505065357 50 146 3.0 11.0 0.00 0.00 0.00 77 1011.4
20260505064839 50 171 5.0 13.0 0.00 0.00 0.00 75 1011.4
20260505064350 51 90 5.0 14.0 0.00 0.00 0.00 74 1011.4
20260505063857 51 145 7.0 14.0 0.00 0.00 0.00 74 1011.4
20260505063338 51 142 8.0 14.0 0.00 0.00 0.00 72 1011.4
20260505062909 51 179 9.0 15.0 0.00 0.00 0.00 72 1011.5
20260505062330 51 142 8.0 15.0 0.00 0.00 0.00 73 1011.5
20260505061842 51 156 7.0 13.0 0.00 0.00 0.00 73 1011.5
20260505061415 51 140 7.0 13.0 0.00 0.00 0.00 74 1011.6
20260505060852 51 179 4.0 15.0 0.00 0.00 0.00 74 1011.6
20260505060334 51 131 9.0 16.0 0.00 0.00 0.00 75 1011.6
20260505055838 51 125 8.0 16.0 0.00 0.00 0.00 76 1011.7
20260505055341 51 139 10.0 15.0 0.00 0.00 0.00 77 1011.7
20260505054853 51 128 6.0 15.0 0.00 0.00 0.00 76 1011.7
20260505054336 51 177 8.0 13.0 0.00 0.00 0.00 76 1011.6
20260505053847 51 163 8.0 14.0 0.00 0.00 0.00 75 1011.6
20260505053327 52 164 6.0 16.0 0.00 0.00 0.00 75 1011.6
20260505052854 52 142 9.0 19.0 0.00 0.00 0.00 73 1011.6
20260505052354 52 113 11.0 19.0 0.00 0.00 0.00 73 1011.6
20260505051833 52 177 7.0 18.0 0.00 0.00 0.00 75 1011.6
20260505051342 52 15 10.0 18.0 0.00 0.00 0.00 75 1012.0
20260505050832 52 121 6.0 18.0 0.00 0.00 0.00 75 1012.0
20260505050349 52 138 12.0 18.0 0.00 0.00 0.00 75 1012.0
20260505041353 53 48 8.0 15.0 0.00 0.00 0.00 75 1011.0
20260505040835 54 289 7.0 15.0 0.00 0.00 0.00 74 1011.0
20260505040351 54 178 9.0 15.0 0.00 0.00 0.00 69 1011.0
20260505035831 55 121 8.0 15.0 0.00 0.00 0.00 68 1010.8
20260505035355 55 142 7.0 14.0 0.00 0.00 0.00 65 1010.8
20260505034856 56 131 6.0 14.0 0.00 0.00 0.00 62 1010.8
20260505034358 56 163 7.0 17.0 0.00 0.00 0.00 62 1010.1
20260505033837 56 192 10.0 17.0 0.00 0.00 0.00 61 1010.1
20260505033345 56 123 8.0 16.0 0.00 0.00 0.00 60 1010.1
20260505032918 56 183 11.0 16.0 0.00 0.00 0.00 59 1009.5
20260505032352 57 178 6.0 14.0 0.00 0.00 0.00 58 1009.5
20260505031830 58 227 7.0 14.0 0.00 0.00 0.00 54 1009.5
20260505031341 58 215 9.0 14.0 0.00 0.00 0.00 47 1009.5
20260505030842 58 177 8.0 12.0 0.00 0.00 0.00 44 1009.5
20260505030352 58 154 6.0 11.0 0.00 0.00 0.00 44 1009.5
20260505025833 58 151 5.0 9.0 0.00 0.00 0.00 45 1009.5
20260505025348 58 152 3.0 7.0 0.00 0.00 0.00 48 1009.5
20260505024847 58 156 4.0 7.0 0.00 0.00 0.00 48 1009.5
20260505024331 58 172 4.0 5.0 0.00 0.00 0.00 48 1008.9
20260505023843 59 173 2.0 4.0 0.00 0.00 0.00 47 1008.9
20260505023355 59 150 2.0 7.0 0.00 0.00 0.00 47 1008.9
20260505022838 59 179 4.0 9.0 0.00 0.00 0.00 46 1008.7
20260505022349 59 141 4.0 9.0 0.00 0.00 0.00 45 1008.7
20260505021833 60 146 5.0 10.0 0.00 0.00 0.00 44 1008.7
20260505021344 60 198 4.0 10.0 0.00 0.00 0.00 45 1009.0
20260505020843 60 188 2.0 8.0 0.00 0.00 0.00 44 1009.0
20260505020329 60 183 3.0 7.0 0.00 0.00 0.00 45 1009.0
20260505015840 60 188 1.0 7.0 0.00 0.00 0.00 44 1008.6
20260505015406 61 198 3.0 6.0 0.00 0.00 0.00 44 1008.6
20260505014854 61 196 3.0 5.0 0.00 0.00 0.00 43 1008.6
20260505014336 61 177 2.0 5.0 0.00 0.00 0.00 43 1009.0
20260505013845 61 163 1.0 6.0 0.00 0.00 0.00 44 1009.0
20260505013412 60 186 3.0 7.0 0.00 0.00 0.00 44 1009.0
20260505012855 61 151 3.0 10.0 0.00 0.00 0.00 45 1009.2
20260505012339 60 124 5.0 10.0 0.00 0.00 0.00 44 1009.2
20260505011844 60 171 3.0 14.0 0.00 0.00 0.00 44 1009.2
20260505011355 60 151 4.0 14.0 0.00 0.00 0.00 45 1009.0
20260505010839 60 146 9.0 16.0 0.00 0.00 0.00 44 1009.0
20260505010330 61 171 8.0 16.0 0.00 0.00 0.00 44 1009.0
20260505005830 61 153 11.0 16.0 0.00 0.00 0.00 44 1009.4
20260505005358 61 121 10.0 16.0 0.00 0.00 0.00 42 1009.4
20260505004900 63 175 8.0 13.0 0.00 0.00 0.00 39 1009.4
20260505004349 63 144 7.0 10.0 0.00 0.00 0.00 38 1009.2
20260505003918 64 120 2.0 7.0 0.00 0.00 0.00 38 1009.2
20260505003337 63 154 3.0 7.0 0.00 0.00 0.00 37 1009.2
20260505002908 63 100 2.0 4.0 0.00 0.00 0.00 36 1009.5
20260505002330 63 56 0.0 4.0 0.00 0.00 0.00 36 1009.5
20260505001840 63 328 1.0 5.0 0.00 0.00 0.00 36 1009.5
20260505001342 64 302 3.0 5.0 0.00 0.00 0.00 35 1009.1
20260505000855 64 31 0.0 6.0 0.00 0.00 0.00 35 1009.1
20260505000344 64 326 1.0 7.0 0.00 0.00 0.00 36 1009.1
20260504235830 64 343 2.0 7.0 0.00 0.00 0.00 35 1009.2
20260504235353 64 5 2.0 7.0 0.00 0.00 0.00 35 1009.2
20260504234850 64 320 4.0 9.0 0.00 0.00 0.00 36 1009.2
20260504234352 64 340 6.0 10.0 0.00 0.00 0.00 36 1009.3
20260504233830 64 345 3.0 9.0 0.00 0.00 0.00 34 1009.3
20260504233406 65 325 3.0 7.0 0.00 0.00 0.00 35 1009.3
20260504232855 66 273 1.0 7.0 0.00 0.00 0.00 33 1009.1
20260504232351 67 347 6.0 7.0 0.00 0.00 0.00 34 1009.1
20260504231850 67 353 1.0 12.0 0.00 0.00 0.00 33 1009.1
20260504231349 66 48 5.0 12.0 0.00 0.00 0.00 34 1008.8
20260504230849 66 97 7.0 13.0 0.00 0.00 0.00 35 1008.8
20260504230356 66 86 7.0 13.0 0.00 0.00 0.00 35 1008.8
20260504225903 65 47 5.0 15.0 0.00 0.00 0.00 35 1009.5
20260504225351 65 124 8.0 18.0 0.00 0.00 0.00 35 1009.5
20260504224847 65 130 8.0 18.0 0.00 0.00 0.00 36 1009.5